Powrót do katalogu

STARLINK-32944

AktywnyŁącznośćVLEO
NORAD 63022·PAYLOAD·🇺🇸 United States

Wystrzelony Feb 15, 2025 z Cape Canaveral Space Force Station

Loading…

Następne Przeloty (najbliższe 24 godziny)

TLE

ŚwieżeSource: CelesTrak SupGP

Epoka: Sep 15, 2026, 02:20 UTC

1 63022C 25032T   26258.09770833  .00040574  00000+0  14694-2 0  2588
2 63022  43.0035 346.7909 0001534 263.1395  63.4076 15.27562551    16

Śledź STARLINK-32944 w czasie rzeczywistym z AllMySat

Download on the App Store